Chadron, NE

2:58 PM MST on November 21, 2017 (GMT -0700)
Chadron Municipal

Weather History for KCDR - November, 2011

Change the Weather History Date:

Thursday, November 10, 2011

  Actual Average Record
Temperature  
Mean Temperature 38 °F 37 °F  
Max Temperature 60 °F 52 °F 77 °F (1954)
Min Temperature 15 °F 22 °F -5 °F (1986)
Degree Days  
Heating Degree Days 27 28  
Month to date heating degree days 297 260  
Since 1 July heating degree days 895 1013  
Cooling Degree Days 0 0  
Month to date cooling degree days 0 0  
Year to date cooling degree days 902 712  
Moisture  
Dew Point 17 °F    
Average Humidity 51    
Maximum Humidity 84    
Minimum Humidity 17    
Precipitation  
Precipitation 0.00 in 0.02 in 0.48 in (1998)
Month to date precipitation 0.37 0.26  
Year to date precipitation 17.40 17.17  
Sea Level Pressure  
Sea Level Pressure 30.14 in    
Wind  
Wind Speed 7 mph (WSW)    
Max Wind Speed 21 mph    
Max Gust Speed 29 mph    
Visibility 10 miles    
Events      
T = Trace of Precipitation, MM = Missing Value Source: NWS Daily Summary

Daily Weather History Graph

Daily Weather History Graph

Search for Another Location

Airport or City:

Trip Planner

Search our weather history database for the weather conditions in past years. The results will help you decide how hot, cold, wet, or windy it might be!

Date:

Astronomy

Nov. 10, 2011 Rise Set
Actual Time 6:37 AM MST 4:34 PM MST
Civil Twilight 6:07 AM MST 5:04 PM MST
Nautical Twilight 5:33 AM MST 5:38 PM MST
Astronomical Twilight 5:00 AM MST 6:11 PM MST
Moon 4:22 PM MST (11/10) 6:33 AM MST (11/10)
Length of Visible Light 10h 56m
Length of Day
9h 56m
Full, 100% of the Moon is Illuminated
Nov 10
Full
Nov 10
Full
Nov 18
Last Quarter
Nov 24
New
Dec 2
First Quarter

Hourly Weather History & Observations

Time (MST) Temp. Windchill Dew Point Humidity Pressure Visibility Wind Dir Wind Speed Gust Speed Precip Events Conditions
12:53 AM 21.9 °F - 16.0 °F 78% 30.41 in 10.0 mi Calm Calm - N/A   Clear
1:53 AM 19.9 °F 12.1 °F 15.1 °F 81% 30.40 in 10.0 mi SW 5.8 mph - N/A   Clear
3:53 AM 18.0 °F 8.7 °F 12.9 °F 81% 30.38 in 10.0 mi WSW 6.9 mph - N/A   Clear
4:53 AM 17.1 °F 11.7 °F 12.9 °F 84% 30.39 in 10.0 mi WSW 3.5 mph - N/A   Clear
6:53 AM 17.1 °F - 12.9 °F 84% 30.40 in 10.0 mi Calm Calm - N/A   Clear
7:53 AM 23.0 °F 15.8 °F 17.1 °F 78% 30.36 in 10.0 mi West 5.8 mph - N/A   Clear
8:53 AM 30.9 °F 25.2 °F 23.0 °F 72% 30.32 in 10.0 mi WSW 5.8 mph - N/A   Clear
11:53 AM 54.0 °F - 17.1 °F 23% 30.15 in 10.0 mi WSW 10.4 mph - N/A   Clear
12:53 PM 57.0 °F - 17.1 °F 21% 30.09 in 9.0 mi West 8.1 mph 16.1 mph N/A   Clear
2:53 PM 60.1 °F - 16.0 °F 18% 30.03 in 10.0 mi West 10.4 mph - N/A   Clear
3:53 PM 55.0 °F - 18.0 °F 23% 30.00 in 10.0 mi WSW 6.9 mph - N/A   Clear
4:53 PM 39.9 °F 35.1 °F 17.1 °F 40% 30.03 in 10.0 mi SW 6.9 mph - N/A   Clear
5:53 PM 36.0 °F - 18.0 °F 48% 30.04 in 10.0 mi Calm Calm - N/A   Clear
6:53 PM 34.0 °F 26.6 °F 19.0 °F 54% 30.02 in 10.0 mi SSW 9.2 mph - N/A   Clear
7:53 PM 37.9 °F 30.5 °F 19.0 °F 47% 29.99 in 10.0 mi SW 11.5 mph - N/A   Clear
8:53 PM 33.1 °F 24.9 °F 19.0 °F 56% 29.99 in 10.0 mi WSW 10.4 mph - N/A   Clear
9:53 PM 33.1 °F 23.9 °F 19.0 °F 56% 29.94 in 10.0 mi SW 12.7 mph - N/A   Clear
10:53 PM 33.1 °F 23.9 °F 18.0 °F 54% 29.92 in 10.0 mi WSW 12.7 mph - N/A   Clear
11:53 PM 45.0 °F 37.4 °F 17.1 °F 33% 29.88 in 10.0 mi WNW 18.4 mph 26.5 mph N/A   Clear